[[{"header":{"parameterUnit":"m.s-1","parameterCategory":1,"la1":30.2991,"la2":30.254,"lo1":-89.0895,"lo2":-89.0444,"dy":0.0017,"dx":0.0017,"nx":28,"ny":28,"refTime":"2024-07-11T21:00:00:Z","depth":0,"parameterNumber":2,"parameterNumberName":"U-component_of_WINDS"},"data":[0,0,0,0,0,0,0,0,0,0,0,0,0,0,0,0,0,0,0,0,0,0,0,0,0,0,0,0,0,0,0,0,0,0,0,0,0,0,0,0,0,0,0,0,0,0,0,0,0,0,0,0,0,0,0,0,0,0,1.816,1.8161,0,1.8217,1.8217,1.8218,1.8229,1.8229,1.8228,1.8228,1.8285,1.8287,1.8289,0,0,0,0,0,0,0,0,0,0,0,0,0,1.806,1.8062,1.816,1.8161,1.8162,1.8216,1.8217,1.8218,1.8229,1.8229,1.8228,1.8228,1.8285,1.8287,1.8289,0,0,0,0,0,0,0,0,0,0,0,0,0,1.8109,1.8063,1.816,1.8174,1.8176,1.8216,1.8217,1.8218,1.8229,1.8229,1.8228,1.8228,1.8284,1.8287,1.829,1.832,0,0,1.8298,1.83,0,0,0,0,0,0,0,0,1.8106,1.8112,1.8171,1.8173,1.8175,1.8215,1.8203,1.8252,1.823,1.8209,1.8228,1.8227,1.8262,1.8267,1.8279,1.8323,1.8325,1.8299,1.83,1.8302,1.8302,0,0,0,0,0,0,0,1.8103,1.811,1.8182,1.8172,1.8174,1.8177,1.8183,1.8212,1.8239,1.8211,1.8212,1.8218,1.8263,1.8276,1.828,1.8326,1.8299,1.8301,1.8303,1.8304,1.8395,1.8396,0,0,0,0,0,0,1.8097,1.8107,1.8181,1.8184,1.8138,1.8179,1.8186,1.8203,1.8238,1.8243,1.8219,1.8219,1.8272,1.8277,1.8282,1.8319,1.8302,1.8304,1.8306,1.8395,1.8396,1.8396,0,0,0,0,0,0,1.8095,1.8104,1.8178,1.8146,1.8156,1.8181,1.82,1.8204,1.8217,1.8244,1.8249,1.8227,1.8271,1.8278,1.831,1.8321,1.8306,1.8308,1.8394,1.8395,1.8396,1.8394,0,0,0,0,0,0,1.8092,1.8103,1.8115,1.8146,1.8157,1.8206,1.8201,1.8206,1.8222,1.8223,1.8253,1.8258,1.8271,1.8306,1.8313,1.8325,1.831,1.8393,1.8394,1.8396,1.8393,1.8395,1.8396,0,0,0,0,0,1.8088,1.8113,1.8116,1.8125,1.8174,1.8207,1.8213,1.8228,1.8223,1.8235,1.8252,1.8257,1.8319,1.8309,1.8317,1.833,1.8392,1.8394,1.8396,1.8392,1.8394,1.8396,0,0,0,0,0,0,1.8083,1.8117,1.8121,1.8156,1.8178,1.8208,1.8225,1.823,1.8254,1.8253,1.827,1.8277,1.8307,1.8322,1.831,1.8361,1.8355,1.8359,1.835,1.8352,1.8354,1.835,1.8313,0,0,0,0,0,1.8086,1.811,1.8139,1.8167,1.8178,1.8199,1.8214,1.8223,1.8247,1.8256,1.8276,1.8298,1.8322,1.8338,1.8362,1.8395,1.8401,1.8408,1.8409,1.8411,1.8413,1.843,1.8433,1.8402,1.8401,1.8401,0,0,1.8092,1.8114,1.8128,1.8166,1.8185,1.8208,1.8207,1.8233,1.825,1.826,1.8291,1.8306,1.8332,1.8364,1.8379,1.8377,1.8423,1.8413,1.8413,1.8415,1.8432,1.8435,1.8437,1.8403,1.8402,1.8402,0,0,1.8116,1.8135,1.816,1.8178,1.8205,1.8219,1.8225,1.8254,1.8264,1.8295,1.8302,1.8323,1.8365,1.8382,1.8397,1.8424,1.8429,1.8432,1.844,1.8456,1.8458,1.846,1.8469,1.8472,1.8434,1.8434,1.8434,0,1.812,1.8157,1.8172,1.8197,1.8213,1.8222,1.8247,1.8263,1.8297,1.8307,1.8305,1.8356,1.8374,1.8409,1.8416,1.8428,1.8434,1.8428,1.8457,1.8459,1.8461,1.847,1.8473,1.8434,1.8434,1.8434,1.8434,0,1.816,1.8185,1.8202,1.8234,1.8252,1.8276,1.8294,1.831,1.8317,1.8331,1.8361,1.8383,1.8411,1.842,1.8427,1.8455,1.8453,1.8453,1.8448,1.8464,1.8472,1.8476,1.8434,1.8434,1.8434,1.8434,0,0,1.8184,1.8222,1.8228,1.8241,1.8271,1.829,1.8314,1.8341,1.8354,1.8376,1.8396,1.843,1.843,1.8446,1.8456,1.847,1.8488,1.8468,1.8469,1.847,1.8519,1.8518,1.8522,1.8491,1.8492,1.8492,1.8516,0,1.821,1.8254,1.8267,1.8304,1.8326,1.8334,1.8355,1.8375,1.8388,1.8408,1.8422,1.8445,1.8444,1.8453,1.8468,1.8483,1.8498,1.8481,1.8509,1.851,1.8502,1.8526,1.8526,1.8548,1.852,1.852,1.8521,0,1.8247,1.827,1.8308,1.8333,1.8343,1.8362,1.8386,1.8406,1.8428,1.8436,1.8453,1.8461,1.8485,1.8478,1.8511,1.8499,1.8511,1.852,1.8521,1.8524,1.8516,1.8529,1.8555,1.8558,1.8526,1.8526,1.8525,0,1.8259,1.8299,1.8326,1.8338,1.8368,1.8381,1.8394,1.8415,1.843,1.8451,1.846,1.8484,1.8497,1.8514,1.8528,1.8522,1.8559,1.8553,1.8565,1.8565,1.8573,1.8572,1.8601,1.8581,1.8581,1.8581,1.8581,0,1.8287,1.831,1.8332,1.8349,1.8374,1.8389,1.8413,1.8426,1.8445,1.8464,1.8472,1.849,1.8506,1.8526,1.8536,1.8561,1.8567,1.8573,1.8576,1.8572,1.8571,1.8581,1.8579,1.8582,1.8582,1.8582,1.8582,0,1.8305,1.832,1.8351,1.8376,1.8383,1.8401,1.8422,1.8438,1.8451,1.8474,1.8481,1.85,1.8523,1.8538,1.8567,1.8574,1.8601,1.8603,1.8593,1.8594,1.8605,1.8604,1.864,1.8645,1.8623,1.8623,1.8623,0,1.8322,1.8339,1.8366,1.838,1.8393,1.8414,1.8429,1.8443,1.8457,1.8482,1.8495,1.8518,1.8538,1.8574,1.859,1.8612,1.8614,1.8625,1.8618,1.8613,1.8614,1.8612,1.8613,1.8627,1.8627,1.8627,1.8627,0,1.8349,1.8356,1.8377,1.84,1.8417,1.8435,1.8454,1.8464,1.8481,1.8497,1.852,1.8535,1.8565,1.8587,1.861,1.8623,1.8627,1.8629,1.8633,1.863,1.8623,1.8626,1.8596,1.8629,1.8628,1.8628,1.8628,1.8628,1.8367,1.8382,1.8403,1.8425,1.8441,1.8458,1.8474,1.8487,1.8507,1.8532,1.8539,1.8563,1.8582,1.8613,1.8626,1.8644,1.8643,1.8649,1.865,1.8651,1.8651,1.862,1.8649,1.8649,1.8649,1.8649,1.8649,0,1.8394,1.8407,1.8428,1.8453,1.8471,1.8473,1.8493,1.8507,1.8529,1.8546,1.8565,1.8591,1.8612,1.8629,1.8651,1.8662,1.8664,1.8667,1.8666,1.8669,1.8651,1.8646,1.8665,1.8665,1.8665,1.8665,1.8665,1.8665,1.841,1.8436,1.8445,1.8477,1.8491,1.8514,1.8525,1.854,1.8554,1.8583,1.8601,1.8611,1.8628,1.8651,1.867,1.8675,1.8682,1.8684,1.8689,1.8672,1.867,1.8669,1.8663,1.8686,1.8686,1.8705,1.8705,1.8705]},{"header":{"parameterUnit":"m.s-1","parameterCategory":1,"la1":30.2991,"la2":30.254,"lo1":-89.0895,"lo2":-89.0444,"dy":0.0017,"dx":0.0017,"nx":28,"ny":28,"refTime":"2024-07-11T21:00:00:Z","depth":0,"parameterNumber":3,"parameterNumberName":"V-component_of_WINDS"},"data":[0,0,0,0,0,0,0,0,0,0,0,0,0,0,0,0,0,0,0,0,0,0,0,0,0,0,0,0,0,0,0,0,0,0,0,0,0,0,0,0,0,0,0,0,0,0,0,0,0,0,0,0,0,0,0,0,0,0,3.9142,3.9142,0,3.9098,3.9097,3.9097,3.908,3.908,3.908,3.908,3.9029,3.9027,3.9026,0,0,0,0,0,0,0,0,0,0,0,0,0,3.9208,3.9207,3.9142,3.9142,3.9141,3.9098,3.9097,3.9096,3.908,3.908,3.908,3.908,3.9029,3.9028,3.9026,0,0,0,0,0,0,0,0,0,0,0,0,0,3.9173,3.9207,3.9143,3.9128,3.9126,3.9098,3.9097,3.9096,3.908,3.908,3.908,3.908,3.903,3.9028,3.9026,3.9007,0,0,3.9019,3.9018,0,0,0,0,0,0,0,0,3.9175,3.917,3.9131,3.9129,3.9127,3.9095,3.9101,3.9066,3.908,3.9097,3.908,3.9081,3.905,3.9046,3.9037,3.9005,3.9002,3.9018,3.9017,3.9016,3.9015,0,0,0,0,0,0,0,3.9177,3.9172,3.9125,3.913,3.9128,3.9122,3.9117,3.9095,3.9073,3.9096,3.9094,3.909,3.9049,3.9039,3.9036,3.9002,3.9019,3.9017,3.9015,3.9014,3.895,3.8949,0,0,0,0,0,0,3.9183,3.9174,3.9126,3.9123,3.9152,3.912,3.9115,3.9105,3.9073,3.9069,3.9089,3.9089,3.9043,3.9039,3.9034,3.9009,3.9016,3.9014,3.9013,3.895,3.895,3.8949,0,0,0,0,0,0,3.9185,3.9179,3.9128,3.9148,3.9142,3.9119,3.9107,3.9104,3.9094,3.9068,3.9064,3.9084,3.9043,3.9037,3.9014,3.9007,3.9013,3.9011,3.895,3.895,3.8949,3.896,0,0,0,0,0,0,3.9186,3.918,3.9174,3.9149,3.9141,3.911,3.9107,3.9103,3.9091,3.909,3.9062,3.9057,3.9043,3.9017,3.9012,3.9004,3.9009,3.8951,3.895,3.895,3.8961,3.896,3.896,0,0,0,0,0,3.9189,3.9178,3.9173,3.9168,3.9133,3.911,3.9105,3.909,3.909,3.9083,3.9067,3.9058,3.9009,3.9015,3.9009,3.9,3.8951,3.895,3.895,3.8961,3.896,3.896,0,0,0,0,0,0,3.9201,3.9174,3.9169,3.915,3.9132,3.9107,3.9098,3.9091,3.9071,3.9071,3.9052,3.9045,3.9023,3.9009,3.9017,3.898,3.8979,3.8977,3.899,3.899,3.8989,3.8993,3.9007,0,0,0,0,0,3.9201,3.9187,3.9163,3.9148,3.914,3.9121,3.911,3.91,3.9081,3.9073,3.9054,3.9034,3.9014,3.9001,3.8981,3.8958,3.8951,3.8949,3.8949,3.8949,3.8947,3.8933,3.8932,3.8947,3.8947,3.8947,0,0,3.9202,3.9186,3.9177,3.915,3.9136,3.9119,3.9114,3.9097,3.9084,3.9069,3.9047,3.9032,3.9008,3.8985,3.8974,3.8973,3.8942,3.8948,3.8949,3.8947,3.8932,3.8931,3.893,3.8946,3.8946,3.8946,0,0,3.9195,3.9181,3.9167,3.9153,3.9131,3.9118,3.9115,3.9091,3.9081,3.9058,3.9047,3.903,3.8996,3.8979,3.8966,3.8952,3.8943,3.8946,3.8944,3.8931,3.893,3.8928,3.8922,3.892,3.8944,3.8944,3.8944,0,3.9198,3.9174,3.916,3.9144,3.9132,3.9119,3.9103,3.909,3.9062,3.9053,3.9053,3.901,3.8992,3.8965,3.8961,3.8951,3.8945,3.8949,3.8931,3.893,3.8929,3.8922,3.892,3.8944,3.8944,3.8944,3.8944,0,3.9178,3.9162,3.9153,3.9128,3.9115,3.9099,3.9081,3.9069,3.906,3.9046,3.9022,3.9001,3.8977,3.8969,3.896,3.8939,3.8939,3.8935,3.8934,3.8928,3.8922,3.8919,3.8945,3.8945,3.8945,3.8945,0,0,3.9177,3.9145,3.9142,3.913,3.9106,3.9092,3.9074,3.9052,3.9041,3.9022,3.9006,3.8977,3.8974,3.8959,3.8947,3.8935,3.8924,3.8932,3.8931,3.8931,3.8899,3.8902,3.8899,3.8918,3.8918,3.8917,3.89,0,3.9166,3.9137,3.9123,3.9099,3.9083,3.907,3.9055,3.9037,3.9023,3.9006,3.899,3.897,3.8967,3.8958,3.8946,3.8928,3.8917,3.8929,3.8901,3.89,3.8907,3.8896,3.8899,3.8885,3.8898,3.8898,3.8897,0,3.9149,3.9132,3.9107,3.9083,3.9076,3.9062,3.904,3.9025,3.9003,3.8994,3.8978,3.8966,3.8945,3.8946,3.8916,3.8924,3.8912,3.8901,3.89,3.8896,3.8898,3.8891,3.888,3.8877,3.8894,3.8894,3.8894,0,3.915,3.912,3.9101,3.9091,3.9064,3.9054,3.9042,3.9021,3.9008,3.8988,3.8979,3.8956,3.8943,3.8925,3.8907,3.8909,3.8878,3.8878,3.8868,3.8869,3.8862,3.8862,3.8847,3.8855,3.8855,3.8855,3.8855,0,3.9139,3.9123,3.9101,3.9089,3.9071,3.9055,3.9037,3.9023,3.9004,3.8988,3.8975,3.896,3.8937,3.8918,3.8904,3.888,3.8875,3.8865,3.8861,3.8866,3.8867,3.8857,3.8857,3.8854,3.8855,3.8855,3.8855,0,3.9136,3.9121,3.9099,3.9075,3.9069,3.9056,3.9034,3.9021,3.9007,3.8987,3.8981,3.8958,3.8935,3.8916,3.8885,3.8875,3.885,3.8846,3.8858,3.8856,3.8847,3.8848,3.8825,3.882,3.8832,3.8832,3.8832,0,3.913,3.9118,3.9093,3.9082,3.9071,3.9053,3.904,3.9023,3.901,3.8984,3.8974,3.895,3.893,3.8894,3.8873,3.8849,3.8844,3.8837,3.884,3.8845,3.8842,3.8843,3.8841,3.8837,3.8837,3.8837,3.8837,0,3.912,3.9113,3.9096,3.9076,3.9061,3.9044,3.9027,3.9018,3.8997,3.8982,3.896,3.8945,3.8914,3.889,3.8864,3.8848,3.8838,3.8836,3.8832,3.8837,3.8844,3.8839,3.8857,3.8837,3.8837,3.8837,3.8837,3.8837,3.9115,3.9103,3.9084,3.9065,3.905,3.9034,3.9021,3.9005,3.8987,3.8962,3.8952,3.8928,3.8905,3.887,3.8854,3.8834,3.8833,3.8828,3.8826,3.8825,3.8825,3.8848,3.8829,3.8829,3.8829,3.8829,3.8829,0,3.9103,3.909,3.9073,3.905,3.9034,3.9028,3.9008,3.8995,3.8975,3.8956,3.8937,3.891,3.8887,3.8864,3.8839,3.8827,3.8822,3.8821,3.8821,3.8817,3.8829,3.8834,3.8826,3.8826,3.8826,3.8826,3.8826,3.8826,3.9096,3.9076,3.9066,3.9038,3.9025,3.9003,3.8992,3.8976,3.8961,3.8932,3.8913,3.8899,3.8878,3.8851,3.8828,3.8822,3.8813,3.8813,3.8806,3.8816,3.8817,3.8817,3.8822,3.8812,3.8812,3.8796,3.8796,3.8796]}]]